This is the latest recevied weather packets stored in our database for station/object DK1CC-11. If no packets are shown the sender has not sent any weather packets the latest 1 day(s).
| Time | Temp. | Humidity | Pressure | Rain* | Wind** | Luminosity | Snow |
|---|---|---|---|---|---|---|---|
| 1788301743 | 16.67° C | 80% | 1009.6 hPa | - | - | - | - |
| 1788300843 | 16.67° C | 78% | 1009.7 hPa | - | - | - | - |
| 1788299943 | 17.22° C | 78% | 1009.7 hPa | - | - | - | - |
| 1788299043 | 17.22° C | 77% | 1009.5 hPa | - | - | - | - |
| 1788298143 | 17.22° C | 76% | 1009.5 hPa | - | - | - | - |
| 1788297243 | 17.78° C | 75% | 1009.5 hPa | - | - | - | - |
| 1788296343 | 17.78° C | 74% | 1009.4 hPa | - | - | - | - |
| 1788295443 | 17.78° C | 73% | 1009.3 hPa | - | - | - | - |
| 1788294543 | 18.33° C | 72% | 1009.4 hPa | - | - | - | - |
| 1788293643 | 18.89° C | 69% | 1009.4 hPa | - | - | - | - |
| 1788292743 | 18.89° C | 68% | 1009.4 hPa | - | - | - | - |
| 1788291843 | 19.44° C | 67% | 1009.3 hPa | - | - | - | - |
| 1788290943 | 19.44° C | 65% | 1009.3 hPa | - | - | - | - |
| 1788290043 | 20° C | 63% | 1009.3 hPa | - | - | - | - |
| 1788289142 | 20.56° C | 63% | 1009.1 hPa | - | - | - | - |
| 1788288242 | 20.56° C | 61% | 1009 hPa | - | - | - | - |
| 1788287342 | 21.11° C | 57% | 1008.9 hPa | - | - | - | - |
| 1788286442 | 21.67° C | 58% | 1008.8 hPa | - | - | - | - |
| 1788285542 | 22.22° C | 56% | 1008.8 hPa | - | - | - | - |
| 1788284642 | 22.78° C | 53% | 1008.7 hPa | - | - | - | - |
| 1788283742 | 22.78° C | 52% | 1008.7 hPa | - | - | - | - |
| 1788282842 | 23.33° C | 51% | 1008.7 hPa | - | - | - | - |
| 1788281942 | 23.33° C | 50% | 1008.7 hPa | - | - | - | - |
| 1788281042 | 23.33° C | 48% | 1008.8 hPa | - | - | - | - |
| 1788280142 | 23.89° C | 49% | 1008.8 hPa | - | - | - | - |
* Rain since midnight (hover to see other rain measurements)
** Current wind speed in m/s (hover to see current wind gust speed)